Regional Weather Roundup
Issued by NWS

Home | Current Version | Previous Version | Text Only | Print | Product List | Glossary Off
Versions: 1 2 3 4 5 6 7 8 9 10 11 12 13 14 15 16 17 18 19 20 21 22 23 24 25 26 27 28 29 30 31 32 33 34 35 36 37 38 39 40 41 42 43 44 45 46 47 48 49 50

000
ASUS44 KMEG 250400
RWRTN
TENNESSEE HOURLY STATE WEATHER ROUNDUP
NATIONAL WEATHER SERVICE MEMPHIS TN
1100 PM CDT TUE MAY 24 2016

TNZ002-004-019-021-049-052-054-088>092-250500-
WEST TENNESSEE

CITY           SKY/WX    TMP DP  RH WIND       PRES   REMARKS
MEMPHIS INTL   LGT RAIN  68  65  90 S10       30.09F
NWS MEMPHIS      N/A     67 N/A N/A MISG        N/A
JACKSON        LGT RAIN  68  65  90 W5        30.11R
DYERSBURG      CLOUDY    66  64  94 SE9       30.04F
UNION CITY     MOCLDY    68  66  94 S9        30.03F
PARIS          CLEAR     66  63  88 S5        30.08F
LEXINGTON      CLEAR     70  64  83 CALM      30.08F
$$

TNZ008-025-027-028-033-062-065-066-250500-
NORTH MIDDLE TENNESSEE

CITY           SKY/WX    TMP DP  RH WIND       PRES   REMARKS
NASHVILLE      PTCLDY    70  58  65 S5        30.10S
CLARKSVILLE    MOCLDY    71  60  68 S3        30.07S
COOKEVILLE     CLEAR     59  57  94 CALM      30.13S
CROSSVILLE     CLEAR     66  53  63 CALM      30.19S
$$

TNZ061-075-076-078-094-096-097-250500-
SOUTH MIDDLE TENNESSEE

CITY           SKY/WX    TMP DP  RH WIND       PRES   REMARKS
TULLAHOMA        N/A     63  61  94 CALM      30.15S
WINCHESTER     CLEAR     63  55  77 CALM      30.15S
MCMINNVILLE    CLEAR     63  59  88 CALM      30.14F
COLUMBIA       CLEAR    N/A N/A N/A CALM      30.10S
SHELBYVILLE    CLEAR     66  57  72 CALM      30.14R
$$

TNZ017-018-042-046-047-250500-
NORTHEAST TENNESSEE

CITY           SKY/WX    TMP DP  RH WIND       PRES   REMARKS
TRI CITIES     CLEAR     56  51  84 CALM      30.20R
$$

TNZ012-013-036-069-073-074-250500-
CENTRAL EAST TENNESSEE

CITY           SKY/WX    TMP DP  RH WIND       PRES   REMARKS
KNOXVILLE      CLEAR     67  52  58 E3        30.15S
OAK RIDGE      CLEAR     65  57  75 CALM      30.16S
GATLINBURG     CLEAR     57  50  77 CALM      30.17R
$$

TNZ083-085-099-250500-
SOUTHEAST TENNESSEE

CITY           SKY/WX    TMP DP  RH WIND       PRES   REMARKS
CHATTANOOGA    PTCLDY    71  56  58 CALM      30.15R
$$

SKY/WX REPORTED AS FAIR MEANS FEW OR NO CLOUDS BELOW
12 THOUSAND FEET.





USA.gov is the U.S. government's official web portal to all federal, state and local government web resources and services.